Location: Four Corners
(38.2757°N, 122.4608°W)
Time: 13:56:45
(UTC+00:00)

Okean-O - Pass Details

Date: 08 December 2019
Orbit: 639 x 640 km, 98.2° (Epoch: 28 January)

Event Time Altitude Azimuth Distance (km) Brightness Sun altitude
Rises 01:42:16 0° 155° (SSE) 2,930 6.0 -10.3°
Reaches altitude 10° 01:44:30 10° 150° (SSE) 2,026 5.1 -10.7°
Maximum altitude 01:48:48 54° 74° (ENE) 779 2.7 -11.5°
Drops below altitude 10° 01:53:08 10° 357° (N) 2,040 5.1 -12.3°
Sets 01:55:22 0° 353° (N) 2,954 5.9 -12.7°
